Location: Dallas(GA)
(33.9240°N, 84.8410°W)
Time: 02:52:31
(UTC-04:00)

N. Korean satellite - Visible Passes

Search period start: 28 September 2020 00:00
Search period end: 08 October 2020 00:00
Orbit: 455 x 503 km, 97.2° (Epoch: 27 September)

Date Brightness Start Highest point End Pass type
(mag) Time Alt. Az. Time Alt. Az. Time Alt. Az.
28 Sep 9.7 06:23:11 10° NE 06:25:43 18° E 06:28:13 10° SE visible
30 Sep 6.8 07:03:30 10° NNE 07:07:05 73° E 07:10:34 10° S visible
01 Oct 8.8 06:37:52 10° NE 06:41:00 29° E 06:44:05 10° SSE visible
02 Oct 10.0 06:13:08 10° ENE 06:14:49 13° E 06:16:29 10° ESE visible
04 Oct 7.6 06:52:46 10° NNE 06:56:13 49° E 06:59:35 10° S visible
05 Oct 9.4 06:27:23 10° NE 06:30:04 20° E 06:32:44 10° SE visible
06 Oct 10.9 19:41:31 10° W 19:41:52 10° W 19:42:11 10° W visible
07 Oct 6.5 07:07:50 10° NNE 07:11:22 86° ESE 07:14:48 10° S visible
